Location: Parador Hotel
(28.2240°N, 16.6271°W)
Time: 03:00:11
(UTC+01:00)

Envisat - Pass Details

Date: 03 February 2022
Orbit: 764 x 765 km, 98.2° (Epoch: 25 May)

Event Time Altitude Azimuth Distance (km) Brightness Sun altitude
Rises 06:04:00 0° 7° (N) 3,227 6.3 -24.2°
Reaches altitude 10° 06:06:19 10° 5° (N) 2,298 5.4 -23.7°
Maximum altitude 06:11:19 64° 285° (WNW) 845 2.9 -22.6°
Drops below altitude 10° 06:16:18 10° 204° (SSW) 2,288 5.3 -21.5°
Sets 06:18:37 0° 201° (SSW) 3,212 6.1 -21.0°
